AALTO-2

Last updated on Thu Apr 05 2018 01:15:04 GMT+0100 (British Summer Time)

1 42729U 98067MJ 18094.36444783 .00020015 00000-0 18754-3 0 9991 2 42729 51.6377 12.2538 0001025 342.7846 17.3115 15.67208314 48779

Satellite not in orbit